DW1520 Weather Reports


Display with metric or nautical units.
time (UTC)temp
F
wind
direction
speed
MPH
gust
MPH
rain 1hr
in
rain 24hr
in
rain mn
in
humidity
%
barometer
mb
20260505075506 40 272 0.0 1.0 0.00 0.00 0.00 62 1004.7
20260505075006 41 272 0.0 3.0 0.00 0.00 0.00 62 1004.7
20260505074505 41 272 0.0 1.0 0.00 0.00 0.00 62 1004.7
20260505074006 41 272 0.0 1.0 0.00 0.00 0.00 62 1004.6
20260505073506 41 272 0.0 1.0 0.00 0.00 0.00 63 1004.6
20260505073006 41 272 0.0 2.0 0.00 0.00 0.00 62 1004.7
20260505072506 42 272 0.0 2.0 0.00 0.00 0.00 60 1004.6
20260505072005 42 272 0.0 0.0 0.00 0.00 0.00 60 1004.6
20260505071506 42 272 0.0 2.0 0.00 0.00 0.00 60 1004.7
20260505071006 42 272 0.0 1.0 0.00 0.00 0.00 59 1004.6
20260505070506 42 272 0.0 1.0 0.00 0.00 0.00 59 1004.6
20260505065505 42 272 0.0 0.0 0.00 0.00 0.00 59 1004.5
20260505065005 42 272 0.0 2.0 0.00 0.00 0.00 59 1004.5
20260505064506 42 272 0.0 3.0 0.00 0.00 0.00 59 1004.6
20260505064006 42 284 0.0 2.0 0.00 0.00 0.00 59 1004.5
20260505063005 42 305 0.0 1.0 0.00 0.00 0.00 59 1004.5
20260505062505 42 305 0.0 1.0 0.00 0.00 0.00 58 1004.5
20260505062006 42 305 0.0 1.0 0.00 0.00 0.00 58 1004.5
20260505061005 43 305 0.0 0.0 0.00 0.00 0.00 57 1004.4
20260505060506 43 305 1.0 3.0 0.00 0.00 0.00 57 1004.4
20260505060006 43 305 1.0 3.0 0.00 0.00 0.00 56 1004.4
20260505055505 43 305 0.0 3.0 0.00 0.00 0.00 57 1004.4
20260505055005 43 305 0.0 3.0 0.00 0.00 0.00 56 1004.4
20260505054505 43 305 0.0 3.0 0.00 0.00 0.00 56 1004.4
20260505054005 43 305 1.0 3.0 0.00 0.00 0.00 56 1004.4
20260505053506 43 305 0.0 3.0 0.00 0.00 0.00 56 1004.3
20260505053006 43 256 0.0 1.0 0.00 0.00 0.00 55 1004.3
20260505052506 43 256 0.0 0.0 0.00 0.00 0.00 55 1004.3
20260505052006 43 256 0.0 2.0 0.00 0.00 0.00 54 1004.3
20260505051506 44 232 0.0 2.0 0.00 0.00 0.00 55 1004.3
20260505050506 44 306 0.0 1.0 0.00 0.00 0.00 54 1004.2
20260505041506 45 289 0.0 2.0 0.00 0.00 0.00 50 1004.3
20260505041006 45 289 0.0 2.0 0.00 0.00 0.00 51 1004.3
20260505040506 45 289 0.0 2.0 0.00 0.00 0.00 50 1004.3
20260505040005 46 268 1.0 2.0 0.00 0.00 0.00 49 1004.2
20260505035505 46 265 2.0 5.0 0.00 0.00 0.00 49 1004.2
20260505035006 46 290 1.0 5.0 0.00 0.00 0.00 49 1004.3
20260505034506 46 298 1.0 3.0 0.00 0.00 0.00 49 1004.3
20260505034006 46 288 1.0 7.0 0.00 0.00 0.00 50 1004.2
20260505033505 46 304 2.0 5.0 0.00 0.00 0.00 50 1004.2
20260505033006 47 302 4.0 8.0 0.00 0.00 0.00 50 1004.2
20260505032505 47 295 2.0 7.0 0.00 0.00 0.00 50 1004.2
20260505032005 47 288 2.0 8.0 0.00 0.00 0.00 50 1004.1
20260505030506 48 296 2.0 9.0 0.00 0.00 0.00 49 1004.1
20260505030006 48 276 3.0 7.0 0.00 0.00 0.00 49 1003.9
20260505025505 49 276 3.0 10.0 0.00 0.00 0.00 49 1003.7
20260505025006 49 295 3.0 8.0 0.00 0.00 0.00 48 1003.7
20260505024505 49 299 3.0 10.0 0.00 0.00 0.00 48 1003.5
20260505024006 49 287 3.0 9.0 0.00 0.00 0.00 48 1003.4
20260505023505 49 312 2.0 8.0 0.00 0.00 0.00 48 1003.2
20260505023006 49 300 3.0 8.0 0.00 0.00 0.00 48 1003.1
20260505022506 49 303 2.0 7.0 0.00 0.00 0.00 48 1003.0
20260505022006 49 302 2.0 7.0 0.00 0.00 0.00 48 1002.9
20260505021505 50 298 3.0 5.0 0.00 0.00 0.00 47 1002.7
20260505020006 50 297 3.0 8.0 0.00 0.00 0.00 47 1002.4
20260505015505 50 305 3.0 8.0 0.00 0.00 0.00 47 1002.3
20260505015006 50 304 3.0 9.0 0.00 0.00 0.00 47 1002.2
20260505014506 51 301 3.0 8.0 0.00 0.00 0.00 47 1002.1
20260505014006 51 304 3.0 8.0 0.00 0.00 0.00 46 1002.1
20260505013505 51 277 4.0 12.0 0.00 0.00 0.00 47 1001.9
20260505013005 51 304 2.0 7.0 0.00 0.00 0.00 46 1001.8
20260505012506 51 290 4.0 9.0 0.00 0.00 0.00 46 1001.7
20260505012005 52 320 3.0 8.0 0.00 0.00 0.00 45 1001.6
20260505011506 52 294 3.0 9.0 0.00 0.00 0.00 46 1001.5
20260505011005 52 293 4.0 10.0 0.00 0.00 0.00 45 1001.4
20260505010506 52 306 3.0 9.0 0.00 0.00 0.00 45 1001.2
20260505010005 53 292 4.0 12.0 0.00 0.00 0.00 45 1001.1
20260505005505 53 294 5.0 13.0 0.00 0.00 0.00 45 1001.1
20260505005006 53 259 3.0 9.0 0.00 0.00 0.00 45 1000.9
20260505003505 54 270 3.0 12.0 0.00 0.00 0.00 44 1000.7
20260505003006 54 300 3.0 10.0 0.00 0.00 0.00 45 1000.5
20260505002506 54 268 3.0 8.0 0.00 0.00 0.00 44 1000.5
20260505001506 55 313 1.0 5.0 0.00 0.00 0.00 46 1000.4
20260505001005 55 299 3.0 10.0 0.00 0.00 0.00 44 1000.4
20260505000505 55 302 6.0 12.0 0.00 0.00 0.00 43 1000.4
20260505000005 56 250 3.0 12.0 0.00 0.00 0.00 43 1000.3
20260504235505 56 296 5.0 13.0 0.00 0.00 0.00 42 1000.3
20260504235006 56 264 4.0 12.0 0.00 0.00 0.00 42 1000.2
20260504234506 56 305 2.0 10.0 0.00 0.00 0.00 43 1000.1
20260504234006 57 298 3.0 15.0 0.00 0.00 0.00 42 1000.0
20260504233505 57 272 5.0 9.0 0.00 0.00 0.00 41 1000.1
20260504233006 57 275 5.0 17.0 0.00 0.00 0.00 42 1000.0
20260504232506 58 304 2.0 12.0 0.00 0.00 0.00 41 999.9
20260504232006 58 285 6.0 12.0 0.00 0.00 0.00 40 999.8
20260504231505 59 293 7.0 16.0 0.00 0.00 0.00 40 999.6
20260504231006 59 283 3.0 9.0 0.00 0.00 0.00 39 999.6
20260504230505 59 283 5.0 10.0 0.00 0.00 0.00 40 999.5
20260504230006 59 263 4.0 8.0 0.00 0.00 0.00 39 999.5
20260504225506 59 259 2.0 8.0 0.00 0.00 0.00 41 999.3
20260504224005 60 282 3.0 10.0 0.00 0.00 0.00 38 999.2
20260504223506 60 244 3.0 18.0 0.00 0.00 0.00 38 999.1
20260504223005 60 301 5.0 18.0 0.00 0.00 0.00 38 999.1
20260504222505 60 241 6.0 14.0 0.00 0.00 0.00 37 999.0
20260504222006 60 277 6.0 17.0 0.00 0.00 0.00 37 998.6
20260504221006 61 281 7.0 14.0 0.00 0.00 0.00 37 998.5
20260504220505 61 297 4.0 12.0 0.00 0.00 0.00 38 998.4
20260504220005 61 207 2.0 6.0 0.00 0.00 0.00 37 998.4
20260504215506 61 227 4.0 10.0 0.00 0.00 0.00 37 998.3
20260504214505 61 298 3.0 15.0 0.00 0.00 0.00 39 998.2
20260504214005 61 217 3.0 8.0 0.00 0.00 0.00 40 998.3
20260504213505 61 268 3.0 9.0 0.00 0.00 0.00 38 998.4
20260504213005 61 242 5.0 14.0 0.00 0.00 0.00 39 998.4
20260504212005 61 273 4.0 12.0 0.00 0.00 0.00 36 998.6
20260504211505 61 261 6.0 18.0 0.00 0.00 0.00 34 998.4
20260504211006 61 251 5.0 13.0 0.00 0.00 0.00 34 998.4
20260504210506 62 277 7.0 16.0 0.00 0.00 0.00 32 998.4
20260504210005 63 265 5.0 14.0 0.00 0.00 0.00 33 998.2
20260504205505 63 241 5.0 12.0 0.00 0.00 0.00 34 998.2
20260504205006 63 252 4.0 13.0 0.00 0.00 0.00 31 998.0
20260504204006 64 262 5.0 15.0 0.00 0.00 0.00 31 997.9
20260504203506 64 266 5.0 15.0 0.00 0.00 0.00 30 997.9
20260504203006 64 312 5.0 17.0 0.00 0.00 0.00 31 997.9
20260504202506 64 298 6.0 14.0 0.00 0.00 0.00 32 997.7
20260504202005 64 286 6.0 14.0 0.00 0.00 0.00 35 997.7
20260504201506 64 245 3.0 12.0 0.00 0.00 0.00 33 997.7
20260504201005 63 258 5.0 12.0 0.00 0.00 0.00 34 997.7
20260504200506 63 254 3.0 8.0 0.00 0.00 0.00 31 997.7
20260504195506 63 252 3.0 10.0 0.00 0.00 0.00 31 997.6
20260504195006 63 236 5.0 16.0 0.00 0.00 0.00 32 997.7
20260504194505 64 226 6.0 16.0 0.00 0.00 0.00 32 997.6
20260504194005 64 295 7.0 17.0 0.00 0.00 0.00 31 997.5
20260504193505 64 254 3.0 12.0 0.00 0.00 0.00 30 997.6
20260504193006 64 294 5.0 12.0 0.00 0.00 0.00 31 997.6
20260504192505 64 265 6.0 15.0 0.00 0.00 0.00 31 997.6
20260504192005 64 225 5.0 10.0 0.00 0.00 0.00 35 997.5
20260504191506 64 241 5.0 9.0 0.00 0.00 0.00 33 997.7
20260504191006 63 234 3.0 8.0 0.00 0.00 0.00 36 997.5
20260504190505 63 269 4.0 9.0 0.00 0.00 0.00 36 997.4
20260504190005 63 255 3.0 8.0 0.00 0.00 0.00 38 997.4
20260504185505 63 228 2.0 6.0 0.00 0.00 0.00 37 997.3
20260504184505 63 272 3.0 6.0 0.00 0.00 0.00 36 997.2
20260504184005 64 257 2.0 9.0 0.00 0.00 0.00 37 997.1
20260504183506 64 225 3.0 9.0 0.00 0.00 0.00 37 997.1
20260504182505 64 272 4.0 9.0 0.00 0.00 0.00 35 996.9
20260504181505 64 216 3.0 10.0 0.00 0.00 0.00 32 996.8
20260504181005 65 213 5.0 12.0 0.00 0.00 0.00 30 996.7
20260504180505 66 222 5.0 12.0 0.00 0.00 0.00 32 996.6
20260504180006 66 219 3.0 12.0 0.00 0.00 0.00 36 996.5
20260504175505 66 235 4.0 7.0 0.00 0.00 0.00 34 996.4
20260504175005 66 230 4.0 8.0 0.00 0.00 0.00 35 996.3
20260504174505 66 284 6.0 13.0 0.00 0.00 0.00 38 996.3
20260504174006 66 274 4.0 10.0 0.00 0.00 0.00 37 996.4
20260504173505 66 225 3.0 5.0 0.00 0.00 0.00 37 996.4
20260504173005 66 217 3.0 12.0 0.00 0.00 0.00 38 996.4
20260504172505 66 286 4.0 12.0 0.00 0.00 0.00 39 996.3
20260504172005 65 282 5.0 13.0 0.00 0.00 0.00 38 996.4
20260504171505 65 292 5.0 12.0 0.00 0.00 0.00 39 996.5
20260504171005 64 295 1.0 3.0 0.00 0.00 0.00 37 996.4
20260504170505 65 264 5.0 12.0 0.00 0.00 0.00 36 996.4
20260504151006 64 216 3.0 8.0 0.00 0.00 0.00 49 995.8
20260504150505 64 284 2.0 6.0 0.00 0.00 0.00 48 995.9
20260504141006 63 225 3.0 13.0 0.00 0.00 0.00 48 995.8
20260504140505 63 226 5.0 10.0 0.00 0.00 0.00 47 995.8
20260504130505 59 176 5.0 12.0 0.00 0.00 0.00 51 995.1
20260504110505 54 189 6.0 12.0 0.00 0.00 0.00 54 995.8
20260504100505 52 169 5.0 10.0 0.00 0.00 0.00 58 996.5
20260504082006 50 161 2.0 6.0 0.00 0.00 0.00 60 997.7
20260504081006 50 174 2.0 3.0 0.00 0.00 0.00 61 998.0